Regional Weather Roundup
Issued by NWS Cleveland, OH

Home | Current Version | Previous Version | Graphics & Text | Print | Product List | Glossary On
Versions: 1 2 3 4 5 6 7 8 9 10 11 12 13 14 15 16 17 18 19 20 21 22 23 24 25 26 27 28 29 30 31 32 33 34 35 36 37 38 39 40 41 42 43 44 45 46 47 48 49 50
000
ASUS41 KCLE 251000
RWRCLE
OHIO REGIONAL WEATHER ROUNDUP
NATIONAL WEATHER SERVICE WILMINGTON, OH
500 AM EST THU DEC 25 2014

NOTE: "FAIR" INDICATES FEW OR NO CLOUDS BELOW 12,000 FEET WITH NO
SIGNIFICANT WEATHER AND/OR OBSTRUCTIONS TO VISIBILITY.

OHZ001>008-015>018-024>027-034-035-043-044-251100-
   NORTHWEST OHIO

CITY           SKY/WX    TMP DP  RH WIND       PRES   REMARKS
DEFIANCE       CLOUDY    37  33  85 W13G22    29.74R
FINDLAY        CLOUDY    37  33  85 W18G26    29.73R
TOLEDO EXPRESS CLOUDY    36  33  89 W17G23    29.70R
TOLEDO METCALF CLOUDY    38  33  82 W18       29.71R
LIMA           CLOUDY    38  34  85 W18G24    29.76R
$$

OHZ009>014-019>023-028>033-038-089-251100-
   NORTHEAST OHIO

CITY           SKY/WX    TMP DP  RH WIND       PRES   REMARKS
CLE-HOPKINS    CLOUDY    38  33  82 SW22G28   29.72R
CLE-LAKEFRONT  CLOUDY    39  34  82 SW18      29.69R
CUY CO. ARPT   NOT AVBL
LORAIN-ELYRIA  CLOUDY    37  33  85 W17G25    29.71R
ASHTABULA      LGT RAIN  39  33  79 W14       29.67R
AKRON-CANTON   CLOUDY    38  33  82 W15G22    29.71R
WOOSTER        NOT AVBL
MANSFIELD      CLOUDY    37  33  85 SW20G28   29.72R
YOUNGSTOWN     LGT RAIN  37  33  85 SW15      29.68R
$$

OHZ042-051>053-060>062-070>072-077>081-251100-
  SOUTHWEST OHIO

CITY           SKY/WX    TMP DP  RH WIND       PRES   REMARKS
CINC-COVINGTON CLOUDY    38  31  76 W12       29.88R
CINC-LUNKEN    CLOUDY    38  35  89 SW8       29.91R
HAMILTON       CLOUDY    39  34  82 W9        29.89R
DAYTON         NOT AVBL
WRIGHT-PAT AFB NOT AVBL
DAYTON GENERAL CLOUDY    38  33  82 SW13G21   29.84R
WILMINGTON     CLOUDY    37  32  82 W18G25    29.84R
$$

OHZ036-037-039>041-045>050-054>059-063>069-073>076-082>088-251100-
  CENTRAL AND SOUTHEAST OHIO

CITY           SKY/WX    TMP DP  RH WIND       PRES   REMARKS
COLUMBUS       LGT RAIN  38  32  79 W18G25    29.80R
OSU AIRPORT    CLOUDY    38  32  79 W14       29.80R
BOLTON FIELD   NOT AVBL
RICKENBACK AFB NOT AVBL
NEWARK         CLOUDY    40  34  79 SW20      29.79R
MARION         CLOUDY    37  32  82 W18G29    29.76R
LANCASTER      CLOUDY    39  34  82 W15G24    29.81R
ZANESVILLE     CLOUDY    38  33  82 W12G24    29.79R
NEW PHILLY     CLOUDY    40  33  76 W10G21    29.76R
$$



USA.gov is the U.S. government's official web portal to all federal, state and local government web resources and services.